Hourly Data Report for October 02, 2017

All times are specified in Local Standard Time (LST). Add 1 hour to adjust for Daylight Saving Time where and when it is observed.

WINNIPEG THE FORKS
MANITOBA

49°53'18.008" N
97°07'46.007" W
230.00 m
5023262
71579
XWN

Download Data

Hourly Data (October 2017)
Hourly Data Report for October 2, 2017
Temp Definition
°C
Dew Point Temp Definition
°C
Rel Hum Definition
%
Wind Dir Definition
10's deg

Wind Spd Definition
km/h
Visibility Definition
km
Stn Press Definition
kPa
Hmdx Definition


Wind Chill Definition


Weather Definition


TIME
00:00 14.5 12.9 90 26 2   97.54     LegendNANA
01:00 14.2 12.9 92 10 4   97.46     LegendNANA
02:00 14.7 13.2 91 4 2   97.47     LegendNANA
03:00 15.0 13.3 90 9 2   97.45     LegendNANA
04:00 14.6 13.3 92 36 3   97.40     LegendNANA
05:00 14.3 13.5 95 21 3   97.42     LegendNANA
06:00 14.5 13.7 95 21 5   97.44     LegendNANA
07:00 14.4 13.1 92 21 13   97.50     LegendNANA
08:00 12.5 10.8 89 21 13   97.63     LegendNANA
09:00 12.8 10.8 88 20 9   97.66     LegendNANA
10:00 13.3 10.4 83 20 10   97.73     LegendNANA
11:00 13.6 8.8 73 21 18   97.76     LegendNANA
12:00 13.8 7.9 67 23 12   97.86     LegendNANA
13:00 14.4 8.1 66 21 12   97.89     LegendNANA
14:00 15.5 7.7 60 21 15   97.95     LegendNANA
15:00 16.2 6.5 52 21 14   97.98     LegendNANA
16:00 16.5 5.9 49 21 14   98.05     LegendNANA
17:00 15.7 5.7 51 21 10   98.11     LegendNANA
18:00 14.7 4.9 52 22 10   98.16     LegendNANA
19:00 13.5 4.7 55 21 7   98.28     LegendNANA
20:00 12.6 5.0 60 21 5   98.37     LegendNANA
21:00 11.6 4.9 64 21 7   98.44     LegendNANA
22:00 11.0 4.6 65 21 6   98.47     LegendNANA
23:00 10.4 4.2 65 21 5   98.47     LegendNANA

Notes on Data Quality.

Legend

  • E = Estimated
  • M = Missing
  • NA = Not Available
  • ‡ = Partner data that is not subject to review by the National Climate Archives
Date modified: